Flag for Austria Weather past 2 weeks in Linz, Upper Austria, Austria

Now
37 °F

Snow showers. Partly sunny.


Feels Like: 27 °F
Forecast: 36 / 42 °F
Wind: 20 mph from Northwest

Location: Linz / Hoersching-Flughafen

Current Time: Apr 1, 2015 at 7:33:12 PM

Latest Report: Apr 1, 2015 at 6:50 PM


Visibility: 2 mi

Pressure: 30.04 "Hg

Humidity: 81%

Dew point: 32 °F

Location of LinzLocation

Historic Weather in Linz — Graph

°F

Linz temperature yesterday

Maximum temperature yesterday: 61 °F (at 12:50 PM)
Minimum temperature yesterday: 39 °F (at 12:50 AM)
Average temperature yesterday: 46 °F

Past Weeks' High & Low Weather Summary

 TemperatureHumidityPressure
High61 °F (Mar 25, 2:50 PM)100% (Mar 24, 2:20 AM)30.30 "Hg (Mar 24, 2:20 AM)
Low28 °F (Mar 21, 4:50 AM)21% (Mar 19, 2:50 PM)29.45 "Hg (Mar 31, 11:50 AM)
Average44 °F70%29.95 "Hg
* Reported Mar 17 5:20 PM — Apr 1 6:20 PM, Linz, Weather by CustomWeather, © 2015

Note: Actual official high and low records may vary slightly from our data, if they occured in-between our weather recording intervals... More about our weather records

Advertising

Linz weather history for previous 24 hours

 ConditionsComfort  
Time TempWeatherWind HumidityBarometerVisibility
6:20 PM
Wed, Apr 1
39 °FBroken clouds.17 mph75%30.01 "HgN/A
5:50 PM41 °FScattered clouds.16 mph70%29.98 "HgN/A
4:50 PM43 °FSprinkles. Partly sunny.17 mph66%29.98 "HgN/A
4:20 PM43 °FPassing clouds.23 mph66%29.95 "HgN/A
3:50 PM41 °FSprinkles. Partly sunny.17 mph76%29.98 "HgN/A
3:20 PM39 °FScattered clouds.20 mph87%29.98 "HgN/A
2:50 PM39 °FPartly sunny.24 mph75%29.98 "HgN/A
2:20 PM37 °FBroken clouds.23 mph81%29.98 "HgN/A
1:50 PM39 °FSprinkles. Partly sunny.26 mph75%29.98 "HgN/A
1:20 PM41 °FBroken clouds.24 mph81%29.98 "HgN/A
12:50 PM43 °FPartly sunny.20 mph66%29.95 "HgN/A
12:20 PM39 °FSnow flurries. Broken clouds.18 mph75%29.95 "HgN/A
11:50 AM34 °FBroken clouds.16 mph93%29.95 "HgN/A
11:20 AM37 °FPartly sunny.13 mph81%29.95 "HgN/A
10:50 AM34 °FSnow flurries. Broken clouds.25 mph87%29.95 "Hg3 mi
10:20 AM39 °FSprinkles. Partly sunny.23 mph70%29.92 "HgN/A
9:50 AM39 °FSprinkles. Broken clouds.25 mph75%29.92 "HgN/A
9:20 AM37 °FThundershowers. Partly sunny.25 mph75%29.89 "HgN/A
8:50 AM39 °FBroken clouds.28 mph70%29.89 "HgN/A
8:20 AM37 °FPartly sunny.22 mph81%29.89 "HgN/A
7:50 AM36 °FSprinkles. Partly sunny.20 mph87%29.89 "Hg3 mi
7:20 AM37 °FSprinkles. Passing clouds.24 mph75%29.86 "HgN/A
6:50 AM37 °FPassing clouds.22 mph75%29.86 "HgN/A
6:20 AM37 °FPartly cloudy.20 mph81%29.86 "HgN/A
5:50 AM37 °FPassing clouds.22 mph81%29.86 "HgN/A
5:20 AM37 °FPassing clouds.22 mph81%29.83 "HgN/A
4:50 AM37 °FSprinkles. Passing clouds.23 mph87%29.86 "HgN/A
4:20 AM37 °FPassing clouds.23 mph87%29.83 "HgN/A
3:50 AM36 °FRain showers. Partly cloudy.24 mph93%29.83 "Hg5 mi
3:20 AM37 °FRain showers. Passing clouds.38 mph87%29.83 "Hg4 mi
2:50 AM41 °FSprinkles. Passing clouds.35 mph81%29.77 "HgN/A
2:20 AM43 °FSprinkles. Partly cloudy.26 mph71%29.77 "HgN/A
1:50 AM45 °FPartly cloudy.20 mph61%29.77 "HgN/A
1:20 AM45 °FPartly cloudy.20 mph61%29.77 "HgN/A
12:50 AM45 °FPassing clouds.21 mph61%29.77 "HgN/A
12:20 AM45 °FPassing clouds.24 mph61%29.77 "HgN/A
11:50 PM
Tue, Mar 31
45 °FPassing clouds.25 mph66%29.77 "HgN/A
11:20 PM45 °FPassing clouds.26 mph66%29.77 "HgN/A
10:50 PM45 °FPassing clouds.23 mph66%29.77 "HgN/A
10:20 PM45 °FPassing clouds.28 mph66%29.77 "HgN/A
9:50 PM45 °FPassing clouds.25 mph66%29.74 "HgN/A
9:20 PM45 °FPassing clouds.26 mph66%29.71 "HgN/A
8:50 PM46 °FPassing clouds.32 mph62%29.71 "HgN/A
8:20 PM46 °FScattered clouds.31 mph66%29.71 "HgN/A
7:50 PM46 °FBroken clouds.33 mph66%29.68 "HgN/A
7:20 PM48 °FSprinkles. Partly sunny.36 mph66%29.65 "HgN/A
Weather by CustomWeather, © 2015

See weather overviewHow to use our weather pages